Retour au catalogue

FENGYUN 1C DEB

ActifSSO
NORAD 29911·DEBRIS·🇨🇳 China

Lancé May 10, 1999 depuis Taiyuan Satellite Launch Center

Loading…

Prochains Passages (prochaines 24 heures)

TLE

FraisSource: Space-Track

Époque: Sep 14, 2026, 09:37 UTC

1 29911U 99025HH  26257.40111145  .00000730  00000-0  36532-3 0  9998
2 29911  98.6892 300.5715 0027123  80.2239 292.4203 14.19564305 13404

Suivez FENGYUN 1C DEB en temps réel avec AllMySat

Download on the App Store